Location: Gibsondale
(40.9931°N, 80.2478°W)
Time: 17:04:54
(UTC+00:00)

SL-08 R/B - Pass Details

Date: 29 October 2020
Orbit: 946 x 994 km, 83.0° (Epoch: 27 November)

Event Time Altitude Azimuth Distance (km) Brightness Sun altitude
Rises 23:15:48 0° 355° (N) 3,652 7.5 -11.1°
Reaches altitude 10° 23:18:21 10° 358° (N) 2,695 6.8 -11.6°
Maximum altitude 23:24:29 66° 81° (E) 1,032 4.4 -12.7°
Drops below altitude 10° 23:30:30 10° 163° (SSE) 2,659 6.7 -13.9°
Sets 23:33:00 0° 166° (SSE) 3,598 7.4 -14.3°
